Location: Newark
(37.4425°N, 87.1467°W)
Time: 13:00:09
(UTC+00:00)

N. Korean satellite - Visible Passes

Search period start: 24 September 2020 00:00
Search period end: 04 October 2020 00:00
Orbit: 455 x 503 km, 97.2° (Epoch: 23 September)

Date Brightness Start Highest point End Pass type
(mag) Time Alt. Az. Time Alt. Az. Time Alt. Az.
24 Sep 9.7 10:33:02 10° NE 10:35:38 18° E 10:38:12 10° SE visible
27 Sep 8.9 10:47:49 10° NE 10:51:00 29° E 10:54:07 10° SSE visible
28 Sep 9.9 10:22:59 10° ENE 10:24:49 13° E 10:26:38 10° ESE visible
30 Sep 7.8 11:02:49 10° NNE 11:06:18 47° E 11:09:42 10° S visible
01 Oct 9.5 10:37:24 10° NE 10:40:10 21° E 10:42:53 10° SE visible
03 Oct 6.7 11:17:57 10° NNE 11:21:32 81° ESE 11:25:01 10° S visible
